Flag for U.S.A. Weather past 2 weeks in Annapolis, Maryland, U.S.A.

Now
46 °F

Sunny.


Feels Like: 43 °F
Forecast: 34 / 51 °F
Wind: 6 mph from Southeast

Location: Annapolis - United States Naval Academy

Current Time: Dec 27, 2014 at 3:57:18 PM

Latest Report: Dec 27, 2014 at 2:54 PM


Visibility: 10 mi

Pressure: 30.22 "Hg

Humidity: 73%

Dew point: 38 °F

Location of AnnapolisLocation

Historic Weather in Annapolis — Graph

°F

Annapolis temperature yesterday

Maximum temperature yesterday: 52 °F (at 12:54 PM)
Minimum temperature yesterday: 33 °F (at 6:54 AM)
Average temperature yesterday: 41 °F

Past Weeks' High & Low Weather Summary

 TemperatureHumidityPressure
High64 °F (Dec 25, 1:54 AM)100% (Dec 23, 2:54 PM)30.37 "Hg (Dec 23, 2:54 PM)
Low30 °F (Dec 20, 4:54 AM)39% (Dec 25, 11:54 AM)29.56 "Hg (Dec 24, 11:54 PM)
Average41 °F74%30.09 "Hg
* Reported Dec 12 1:54 PM — Dec 27 1:54 PM, Annapolis, Weather by CustomWeather, © 2014

Note: Actual official high and low records may vary slightly from our data, if they occured in-between our weather recording intervals... More about our weather records

Advertising

Annapolis weather history for previous 24 hours

 ConditionsComfort  
Time TempWeatherWind HumidityBarometerVisibility
1:54 PM
Dec 27
47 °FSunny.6 mph66%30.22 "Hg10 mi
12:54 PM44 °FSunny.8 mph82%30.24 "Hg10 mi
11:54 AM44 °FSunny.6 mph82%30.27 "Hg10 mi
10:54 AM42 °FSunny.3 mph79%30.30 "Hg10 mi
9:54 AM41 °FSunny.No wind80%30.30 "Hg10 mi
8:54 AM40 °FSunny.No wind83%30.30 "Hg9 mi
7:54 AM38 °FSunny.No wind93%30.28 "Hg8 mi
6:54 AM36 °FClear.No wind92%30.28 "Hg8 mi
5:54 AM36 °FClear.No wind92%30.26 "Hg10 mi
4:54 AM36 °FClear.No wind89%30.27 "Hg9 mi
3:54 AM34 °FClear.No wind92%30.24 "Hg10 mi
2:54 AM35 °FClear.No wind92%30.25 "Hg8 mi
1:54 AM35 °FClear.No wind92%30.25 "Hg8 mi
12:54 AM35 °FClear.No wind88%30.26 "Hg8 mi
11:54 PM
Dec 26
36 °FClear.No wind89%30.26 "Hg8 mi
10:54 PM37 °FClear.No wind93%30.29 "Hg7 mi
9:54 PM37 °FClear.No wind89%30.29 "Hg8 mi
8:54 PM38 °FClear.No wind86%30.30 "Hg10 mi
7:54 PM37 °FClear.No wind86%30.30 "Hg10 mi
6:54 PM40 °FClear.No wind80%30.28 "Hg10 mi
5:54 PM43 °FClear.3 mph68%30.27 "Hg10 mi
4:54 PM44 °FClear.5 mph65%30.26 "Hg10 mi
3:54 PM47 °FSunny.7 mph59%30.25 "Hg10 mi
Weather by CustomWeather, © 2014

See weather overviewHow to use our weather pages